| time (UTC) | temp F | wind direction | speed MPH | gust MPH | rain 1hr in | rain 24hr in | rain mn in | humidity % | barometer mb |
| 20260503184218 | 55 | 157 | 2.0 | 3.0 | 0.00 | 0.00 | 0.00 | 42 | 1015.1 |
| 20260503183714 | 54 | 320 | 4.0 | 7.0 | 0.00 | 0.00 | 0.00 | 41 | 1015.2 |
| 20260503183212 | 55 | 0 | 4.0 | 7.0 | 0.00 | 0.00 | 0.00 | 41 | 1015.3 |
| 20260503182710 | 55 | 75 | 2.0 | 2.0 | 0.00 | 0.00 | 0.00 | 42 | 1015.4 |
| 20260503182208 | 54 | 259 | 4.0 | 10.0 | 0.00 | 0.00 | 0.00 | 42 | 1015.1 |
| 20260503181704 | 55 | 8 | 4.0 | 6.0 | 0.00 | 0.00 | 0.00 | 40 | 1015.5 |
| 20260503181201 | 54 | 294 | 5.0 | 8.0 | 0.00 | 0.00 | 0.00 | 41 | 1015.3 |
| 20260503180658 | 54 | 233 | 6.0 | 10.0 | 0.00 | 0.00 | 0.00 | 40 | 1015.2 |
| 20260503180156 | 53 | 310 | 1.0 | 1.0 | 0.00 | 0.00 | 0.00 | 42 | 1015.2 |
| 20260503175653 | 53 | 15 | 4.0 | 6.0 | 0.00 | 0.00 | 0.00 | 42 | 1015.2 |
| 20260503175150 | 54 | 22 | 3.0 | 3.0 | 0.00 | 0.00 | 0.00 | 41 | 1015.3 |
| 20260503174646 | 54 | 280 | 7.0 | 11.0 | 0.00 | 0.00 | 0.00 | 41 | 1015.2 |
| 20260503174144 | 56 | 272 | 4.0 | 6.0 | 0.00 | 0.00 | 0.00 | 38 | 1015.1 |
| 20260503173639 | 55 | 47 | 4.0 | 6.0 | 0.00 | 0.00 | 0.00 | 43 | 1015.2 |
| 20260503173136 | 54 | 220 | 4.0 | 6.0 | 0.00 | 0.00 | 0.00 | 41 | 1015.4 |
| 20260503172632 | 55 | 321 | 6.0 | 9.0 | 0.00 | 0.00 | 0.00 | 39 | 1015.0 |
| 20260503172129 | 55 | 332 | 5.0 | 7.0 | 0.00 | 0.00 | 0.00 | 40 | 1015.2 |
| 20260503171625 | 53 | 17 | 2.0 | 2.0 | 0.00 | 0.00 | 0.00 | 41 | 1015.4 |
| 20260503171123 | 54 | 337 | 9.0 | 13.0 | 0.00 | 0.00 | 0.00 | 39 | 1015.3 |
| 20260503170620 | 55 | 325 | 6.0 | 8.0 | 0.00 | 0.00 | 0.00 | 39 | 1015.3 |
| 20260503170116 | 54 | 6 | 5.0 | 7.0 | 0.00 | 0.00 | 0.00 | 39 | 1015.2 |
| 20260503151012 | 51 | 292 | 6.0 | 8.0 | 0.00 | 0.00 | 0.00 | 45 | 1015.7 |
| 20260503150508 | 52 | 254 | 1.0 | 2.0 | 0.00 | 0.00 | 0.00 | 50 | 1015.8 |
| 20260503131350 | 49 | 109 | 4.0 | 6.0 | 0.00 | 0.00 | 0.00 | 53 | 1015.8 |
| 20260503130847 | 49 | 13 | 3.0 | 4.0 | 0.00 | 0.00 | 0.00 | 54 | 1015.8 |
| 20260503130345 | 49 | 143 | 1.0 | 1.0 | 0.00 | 0.00 | 0.00 | 55 | 1015.8 |
| 20260503110739 | 44 | 312 | 1.0 | 1.0 | 0.00 | 0.00 | 0.00 | 61 | 1015.5 |
| 20260503110236 | 44 | 141 | 1.0 | 1.0 | 0.00 | 0.00 | 0.00 | 61 | 1015.3 |
| 20260503100202 | 43 | 164 | 0.0 | 1.0 | 0.00 | 0.00 | 0.00 | 63 | 1014.9 |
| 20260503090121 | 44 | 155 | 2.0 | 3.0 | 0.00 | 0.00 | 0.00 | 62 | 1014.8 |
| 20260503081556 | 44 | 160 | 0.0 | 0.0 | 0.00 | 0.00 | 0.00 | 62 | 1014.7 |
| 20260503081053 | 44 | 120 | 0.0 | 0.0 | 0.00 | 0.00 | 0.00 | 62 | 1014.8 |
| 20260503080549 | 44 | 301 | 1.0 | 2.0 | 0.00 | 0.00 | 0.00 | 62 | 1014.9 |
| 20260503072523 | 45 | 15 | 5.0 | 6.0 | 0.00 | 0.00 | 0.00 | 59 | 1014.7 |
| 20260503072020 | 45 | 312 | 2.0 | 2.0 | 0.00 | 0.00 | 0.00 | 59 | 1014.5 |
| 20260503071517 | 45 | 19 | 2.0 | 2.0 | 0.00 | 0.00 | 0.00 | 59 | 1014.7 |
| 20260503071014 | 46 | 237 | 1.0 | 1.0 | 0.00 | 0.00 | 0.00 | 60 | 1014.6 |
| 20260503070511 | 46 | 172 | 0.0 | 0.0 | 0.00 | 0.00 | 0.00 | 58 | 1014.8 |
| 20260503054929 | 48 | 195 | 1.0 | 1.0 | 0.00 | 0.00 | 0.00 | 55 | 1015.0 |
| 20260503054425 | 48 | 351 | 3.0 | 3.0 | 0.00 | 0.00 | 0.00 | 54 | 1015.1 |
| 20260503053923 | 48 | 147 | 1.0 | 1.0 | 0.00 | 0.00 | 0.00 | 55 | 1015.0 |
| 20260503053421 | 48 | 154 | 1.0 | 1.0 | 0.00 | 0.00 | 0.00 | 55 | 1015.2 |
| 20260503052916 | 48 | 153 | 0.0 | 0.0 | 0.00 | 0.00 | 0.00 | 55 | 1015.3 |
| 20260503052414 | 48 | 148 | 0.0 | 0.0 | 0.00 | 0.00 | 0.00 | 55 | 1015.4 |
| 20260503051910 | 48 | 350 | 1.0 | 2.0 | 0.00 | 0.00 | 0.00 | 54 | 1015.5 |
| 20260503051406 | 48 | 228 | 3.0 | 4.0 | 0.00 | 0.00 | 0.00 | 53 | 1015.6 |
| 20260503050904 | 48 | 180 | 0.0 | 0.0 | 0.00 | 0.00 | 0.00 | 54 | 1015.6 |
| 20260503050359 | 48 | 17 | 6.0 | 8.0 | 0.00 | 0.00 | 0.00 | 52 | 1015.5 |
| 20260503045857 | 48 | 96 | 0.0 | 1.0 | 0.00 | 0.00 | 0.00 | 54 | 1015.5 |
| 20260503045355 | 49 | 172 | 1.0 | 1.0 | 0.00 | 0.00 | 0.00 | 52 | 1015.6 |
| 20260503044851 | 49 | 126 | 1.0 | 1.0 | 0.00 | 0.00 | 0.00 | 53 | 1015.6 |
| 20260503044348 | 49 | 339 | 2.0 | 2.0 | 0.00 | 0.00 | 0.00 | 54 | 1015.8 |
| 20260503043845 | 49 | 104 | 1.0 | 2.0 | 0.00 | 0.00 | 0.00 | 53 | 1015.8 |
| 20260503043342 | 49 | 149 | 0.0 | 0.0 | 0.00 | 0.00 | 0.00 | 56 | 1015.6 |
| 20260503042838 | 49 | 157 | 0.0 | 0.0 | 0.00 | 0.00 | 0.00 | 54 | 1015.9 |
| 20260503042335 | 49 | 151 | 0.0 | 0.0 | 0.00 | 0.00 | 0.00 | 55 | 1016.0 |
| 20260503041831 | 49 | 131 | 2.0 | 2.0 | 0.00 | 0.00 | 0.00 | 53 | 1015.9 |
| 20260503041329 | 50 | 225 | 0.0 | 1.0 | 0.00 | 0.00 | 0.00 | 54 | 1015.8 |
| 20260503040826 | 50 | 31 | 5.0 | 6.0 | 0.00 | 0.00 | 0.00 | 53 | 1015.9 |
| 20260503040324 | 50 | 342 | 2.0 | 3.0 | 0.00 | 0.00 | 0.00 | 53 | 1015.9 |
| 20260503035820 | 50 | 146 | 0.0 | 0.0 | 0.00 | 0.05 | 0.05 | 54 | 1015.7 |
| 20260503035317 | 50 | 168 | 0.0 | 0.0 | 0.00 | 0.05 | 0.05 | 53 | 1015.8 |
| 20260503034815 | 50 | 152 | 0.0 | 0.0 | 0.00 | 0.05 | 0.05 | 53 | 1015.7 |
| 20260503034312 | 50 | 155 | 0.0 | 1.0 | 0.00 | 0.05 | 0.05 | 52 | 1015.4 |
| 20260503033809 | 50 | 149 | 0.0 | 1.0 | 0.00 | 0.05 | 0.05 | 53 | 1015.5 |
| 20260503033306 | 50 | 268 | 2.0 | 2.0 | 0.00 | 0.05 | 0.05 | 53 | 1015.6 |
| 20260503032805 | 50 | 171 | 0.0 | 1.0 | 0.00 | 0.05 | 0.05 | 54 | 1015.5 |
| 20260503032304 | 50 | 130 | 0.0 | 1.0 | 0.00 | 0.05 | 0.05 | 54 | 1015.4 |
| 20260503031800 | 50 | 182 | 0.0 | 0.0 | 0.00 | 0.05 | 0.05 | 54 | 1015.5 |
| 20260503031258 | 51 | 158 | 0.0 | 0.0 | 0.00 | 0.05 | 0.05 | 53 | 1015.6 |
| 20260503030754 | 51 | 8 | 0.0 | 0.0 | 0.00 | 0.05 | 0.05 | 53 | 1015.4 |
| 20260503030250 | 50 | 342 | 2.0 | 2.0 | 0.00 | 0.05 | 0.05 | 52 | 1015.5 |
| 20260503025747 | 51 | 177 | 0.0 | 0.0 | 0.00 | 0.05 | 0.05 | 52 | 1015.2 |
| 20260503025245 | 51 | 216 | 0.0 | 0.0 | 0.00 | 0.05 | 0.05 | 53 | 1015.5 |
| 20260503024741 | 51 | 234 | 1.0 | 1.0 | 0.00 | 0.05 | 0.05 | 52 | 1015.5 |
| 20260503024238 | 51 | 143 | 0.0 | 0.0 | 0.00 | 0.05 | 0.05 | 52 | 1015.5 |
| 20260503023735 | 51 | 286 | 1.0 | 1.0 | 0.00 | 0.05 | 0.05 | 51 | 1015.4 |
| 20260503023232 | 52 | 154 | 0.0 | 0.0 | 0.00 | 0.05 | 0.05 | 52 | 1015.6 |
| 20260503022728 | 52 | 319 | 4.0 | 4.0 | 0.00 | 0.05 | 0.05 | 50 | 1015.3 |
| 20260503022228 | 52 | 5 | 2.0 | 2.0 | 0.00 | 0.05 | 0.05 | 50 | 1015.4 |
| 20260503021725 | 52 | 359 | 2.0 | 3.0 | 0.00 | 0.05 | 0.05 | 50 | 1015.5 |
| 20260503021221 | 52 | 45 | 1.0 | 2.0 | 0.00 | 0.05 | 0.05 | 49 | 1015.5 |
| 20260503020719 | 53 | 2 | 3.0 | 3.0 | 0.00 | 0.05 | 0.05 | 48 | 1015.8 |
| 20260503020217 | 52 | 5 | 2.0 | 2.0 | 0.00 | 0.05 | 0.05 | 49 | 1015.9 |
| 20260503015713 | 53 | 42 | 3.0 | 4.0 | 0.00 | 0.05 | 0.05 | 48 | 1015.6 |
| 20260503015210 | 53 | 38 | 1.0 | 2.0 | 0.00 | 0.05 | 0.05 | 48 | 1015.6 |
| 20260503014706 | 53 | 170 | 0.0 | 1.0 | 0.00 | 0.05 | 0.05 | 49 | 1015.9 |
| 20260503014204 | 53 | 350 | 4.0 | 6.0 | 0.00 | 0.05 | 0.05 | 48 | 1015.5 |
| 20260503013701 | 53 | 112 | 1.0 | 1.0 | 0.00 | 0.05 | 0.05 | 48 | 1015.6 |
| 20260503013159 | 53 | 79 | 1.0 | 2.0 | 0.00 | 0.05 | 0.05 | 46 | 1015.9 |
| 20260503012656 | 53 | 91 | 2.0 | 2.0 | 0.00 | 0.05 | 0.05 | 47 | 1015.6 |
| 20260503012153 | 53 | 93 | 0.0 | 0.0 | 0.00 | 0.05 | 0.05 | 47 | 1015.7 |
| 20260503011648 | 53 | 150 | 1.0 | 1.0 | 0.00 | 0.05 | 0.05 | 46 | 1015.7 |
| 20260503011146 | 53 | 18 | 2.0 | 3.0 | 0.00 | 0.05 | 0.05 | 46 | 1015.5 |
| 20260503010642 | 53 | 337 | 2.0 | 2.0 | 0.00 | 0.05 | 0.05 | 45 | 1015.5 |
| 20260503010140 | 53 | 345 | 2.0 | 2.0 | 0.00 | 0.05 | 0.05 | 45 | 1015.3 |
| 20260503005637 | 53 | 6 | 2.0 | 2.0 | 0.00 | 0.05 | 0.05 | 45 | 1015.3 |
| 20260503005134 | 53 | 183 | 0.0 | 1.0 | 0.00 | 0.05 | 0.05 | 46 | 1015.5 |
| 20260503004630 | 53 | 194 | 0.0 | 1.0 | 0.00 | 0.05 | 0.05 | 46 | 1015.2 |
| 20260503004129 | 53 | 319 | 2.0 | 3.0 | 0.00 | 0.05 | 0.05 | 46 | 1015.3 |
| 20260503003625 | 53 | 69 | 1.0 | 1.0 | 0.00 | 0.05 | 0.05 | 47 | 1015.4 |
| 20260503003122 | 54 | 325 | 3.0 | 3.0 | 0.00 | 0.05 | 0.05 | 46 | 1015.1 |
| 20260503002619 | 54 | 127 | 1.0 | 1.0 | 0.00 | 0.05 | 0.05 | 47 | 1015.2 |
| 20260503002116 | 53 | 15 | 2.0 | 3.0 | 0.00 | 0.05 | 0.05 | 46 | 1015.1 |
| 20260503001612 | 53 | 20 | 2.0 | 2.0 | 0.00 | 0.05 | 0.05 | 51 | 1015.1 |
| 20260503001109 | 53 | 183 | 1.0 | 1.0 | 0.00 | 0.05 | 0.05 | 52 | 1015.1 |
| 20260503000607 | 53 | 181 | 0.0 | 0.0 | 0.00 | 0.05 | 0.05 | 51 | 1015.0 |
| 20260503000104 | 53 | 179 | 0.0 | 0.0 | 0.00 | 0.05 | 0.05 | 52 | 1015.0 |
| 20260502235600 | 53 | 175 | 0.0 | 1.0 | 0.00 | 0.05 | 0.05 | 50 | 1015.1 |
| 20260502235058 | 54 | 124 | 0.0 | 0.0 | 0.00 | 0.05 | 0.05 | 51 | 1015.0 |
| 20260502234554 | 54 | 106 | 1.0 | 1.0 | 0.00 | 0.05 | 0.05 | 49 | 1014.8 |
| 20260502234052 | 55 | 120 | 0.0 | 0.0 | 0.00 | 0.05 | 0.05 | 48 | 1014.7 |
| 20260502233551 | 55 | 188 | 0.0 | 0.0 | 0.00 | 0.05 | 0.05 | 50 | 1014.8 |
| 20260502233048 | 56 | 181 | 0.0 | 0.0 | 0.00 | 0.05 | 0.05 | 48 | 1014.8 |
| 20260502232544 | 57 | 178 | 0.0 | 0.0 | 0.00 | 0.05 | 0.05 | 45 | 1014.7 |
| 20260502232043 | 58 | 165 | 0.0 | 1.0 | 0.00 | 0.05 | 0.05 | 44 | 1014.7 |
| 20260502231539 | 58 | 202 | 0.0 | 1.0 | 0.00 | 0.05 | 0.05 | 46 | 1014.6 |
| 20260502231037 | 57 | 181 | 0.0 | 0.0 | 0.00 | 0.05 | 0.05 | 44 | 1014.5 |
| 20260502230535 | 57 | 179 | 0.0 | 0.0 | 0.00 | 0.05 | 0.05 | 44 | 1014.5 |
| 20260502230033 | 57 | 186 | 0.0 | 0.0 | 0.00 | 0.05 | 0.05 | 45 | 1014.4 |
| 20260502225528 | 57 | 176 | 0.0 | 0.0 | 0.00 | 0.05 | 0.05 | 44 | 1014.5 |
| 20260502225025 | 58 | 190 | 0.0 | 0.0 | 0.00 | 0.05 | 0.05 | 43 | 1014.6 |
| 20260502224521 | 58 | 189 | 0.0 | 1.0 | 0.00 | 0.05 | 0.05 | 42 | 1014.6 |
| 20260502224019 | 58 | 131 | 1.0 | 1.0 | 0.00 | 0.05 | 0.05 | 42 | 1014.7 |
| 20260502223516 | 59 | 179 | 0.0 | 1.0 | 0.00 | 0.05 | 0.05 | 41 | 1014.6 |
| 20260502223015 | 60 | 67 | 0.0 | 1.0 | 0.00 | 0.05 | 0.05 | 39 | 1014.5 |
| 20260502222511 | 61 | 270 | 2.0 | 2.0 | 0.00 | 0.05 | 0.05 | 39 | 1014.5 |
| 20260502222008 | 61 | 1 | 1.0 | 3.0 | 0.00 | 0.05 | 0.05 | 38 | 1014.6 |
| 20260502221503 | 60 | 256 | 2.0 | 2.0 | 0.00 | 0.05 | 0.05 | 41 | 1014.4 |
| 20260502221001 | 59 | 147 | 0.0 | 1.0 | 0.00 | 0.05 | 0.05 | 51 | 1014.3 |
| 20260502220456 | 60 | 355 | 5.0 | 6.0 | 0.00 | 0.05 | 0.05 | 51 | 1014.3 |
| 20260502215953 | 58 | 94 | 0.0 | 1.0 | 0.00 | 0.05 | 0.05 | 52 | 1014.3 |
| 20260502215451 | 58 | 175 | 3.0 | 4.0 | 0.00 | 0.05 | 0.05 | 64 | 1014.2 |
| 20260502214948 | 58 | 160 | 2.0 | 2.0 | 0.00 | 0.05 | 0.05 | 61 | 1014.4 |
| 20260502214444 | 59 | 221 | 1.0 | 2.0 | 0.00 | 0.05 | 0.05 | 60 | 1014.4 |
| 20260502213942 | 58 | 195 | 1.0 | 1.0 | 0.00 | 0.05 | 0.05 | 63 | 1014.4 |
| 20260502213438 | 58 | 160 | 2.0 | 3.0 | 0.00 | 0.05 | 0.05 | 62 | 1014.6 |
| 20260502212937 | 58 | 141 | 4.0 | 6.0 | 0.00 | 0.05 | 0.05 | 62 | 1014.1 |
| 20260502212435 | 59 | 131 | 2.0 | 3.0 | 0.00 | 0.05 | 0.05 | 61 | 1014.3 |
| 20260502211932 | 59 | 150 | 1.0 | 1.0 | 0.00 | 0.05 | 0.05 | 62 | 1014.2 |
| 20260502211428 | 60 | 222 | 4.0 | 6.0 | 0.00 | 0.05 | 0.05 | 61 | 1014.1 |
| 20260502210925 | 62 | 126 | 1.0 | 1.0 | 0.00 | 0.05 | 0.05 | 58 | 1014.0 |
| 20260502210422 | 60 | 155 | 0.0 | 0.0 | 0.00 | 0.05 | 0.05 | 43 | 1014.0 |
| 20260502205919 | 60 | 255 | 2.0 | 2.0 | 0.00 | 0.05 | 0.05 | 42 | 1014.1 |
| 20260502205415 | 61 | 307 | 1.0 | 2.0 | 0.00 | 0.05 | 0.05 | 43 | 1014.1 |
| 20260502204913 | 60 | 187 | 1.0 | 2.0 | 0.00 | 0.05 | 0.05 | 43 | 1013.9 |
| 20260502204409 | 60 | 324 | 2.0 | 3.0 | 0.00 | 0.05 | 0.05 | 43 | 1014.1 |
| 20260502203908 | 60 | 179 | 1.0 | 1.0 | 0.00 | 0.05 | 0.05 | 44 | 1014.2 |
| 20260502203405 | 60 | 347 | 2.0 | 3.0 | 0.00 | 0.05 | 0.05 | 42 | 1014.5 |
| 20260502202900 | 62 | 164 | 1.0 | 1.0 | 0.00 | 0.05 | 0.05 | 48 | 1014.3 |
| 20260502202358 | 62 | 94 | 1.0 | 2.0 | 0.00 | 0.05 | 0.05 | 43 | 1014.4 |
| 20260502201855 | 62 | 110 | 1.0 | 1.0 | 0.00 | 0.05 | 0.05 | 43 | 1014.3 |
| 20260502201351 | 61 | 31 | 2.0 | 3.0 | 0.00 | 0.05 | 0.05 | 46 | 1014.5 |
| 20260502200848 | 59 | 209 | 0.0 | 1.0 | 0.00 | 0.05 | 0.05 | 45 | 1014.5 |
| 20260502200343 | 59 | 177 | 0.0 | 1.0 | 0.00 | 0.05 | 0.05 | 56 | 1014.5 |
| 20260502195842 | 59 | 148 | 2.0 | 2.0 | 0.00 | 0.05 | 0.05 | 55 | 1014.5 |
| 20260502195338 | 59 | 357 | 1.0 | 2.0 | 0.00 | 0.05 | 0.05 | 55 | 1014.7 |
| 20260502194835 | 59 | 13 | 2.0 | 2.0 | 0.00 | 0.05 | 0.05 | 52 | 1014.7 |
| 20260502194332 | 59 | 248 | 2.0 | 2.0 | 0.00 | 0.05 | 0.05 | 51 | 1014.9 |
| 20260502193828 | 58 | 171 | 0.0 | 0.0 | 0.00 | 0.05 | 0.05 | 59 | 1014.9 |
| 20260502193325 | 59 | 172 | 0.0 | 1.0 | 0.00 | 0.05 | 0.05 | 56 | 1015.1 |
| 20260502192820 | 59 | 172 | 0.0 | 0.0 | 0.00 | 0.05 | 0.05 | 57 | 1015.0 |
| 20260502192318 | 59 | 347 | 2.0 | 2.0 | 0.00 | 0.05 | 0.05 | 56 | 1015.2 |
| 20260502191815 | 59 | 182 | 0.0 | 0.0 | 0.00 | 0.05 | 0.05 | 60 | 1014.9 |
| 20260502191313 | 59 | 171 | 1.0 | 1.0 | 0.00 | 0.05 | 0.05 | 57 | 1015.2 |
| 20260502190810 | 59 | 150 | 0.0 | 1.0 | 0.00 | 0.05 | 0.05 | 60 | 1015.2 |
| 20260502190307 | 60 | 69 | 0.0 | 0.0 | 0.00 | 0.05 | 0.05 | 58 | 1015.1 |
| 20260502185802 | 59 | 256 | 2.0 | 3.0 | 0.00 | 0.05 | 0.05 | 59 | 1015.4 |
| 20260502185258 | 59 | 161 | 0.0 | 0.0 | 0.00 | 0.05 | 0.05 | 62 | 1015.4 |
| 20260502184755 | 59 | 140 | 0.0 | 0.0 | 0.00 | 0.05 | 0.05 | 62 | 1015.3 |